Time,TemperatureF,DewpointF,PressureIn,WindDirection,WindDirectionDegrees,WindSpeedMPH,WindSpeedGustMPH,Humidity,HourlyPrecipIn,Conditions,Clouds,dailyrainin,SoftwareType,DateUTC
2013-10-15 00:27:00,61.0,60.7,30.00,SSE,157,0.0,0.0,99,0.00,,,0.00,WUHU21623XXSP,2013-10-15 05:27:00,
2013-10-15 00:32:00,61.2,60.9,30.00,SSE,157,0.0,0.7,99,0.00,,,0.00,WUHU21623XXSP,2013-10-15 05:32:00,
2013-10-15 00:37:00,61.3,61.1,30.00,SSW,202,0.0,0.7,99,0.00,,,0.00,WUHU21623XXSP,2013-10-15 05:37:00,
2013-10-15 00:42:00,61.3,61.1,30.00,South,180,0.0,0.0,99,0.00,,,0.00,WUHU21623XXSP,2013-10-15 05:42:00,
2013-10-15 00:47:00,61.5,61.1,30.00,SSW,202,0.0,0.0,99,0.00,,,0.00,WUHU21623XXSP,2013-10-15 05:47:00,
2013-10-15 00:52:00,61.5,61.2,30.00,South,180,0.0,0.0,99,0.00,,,0.00,WUHU21623XXSP,2013-10-15 05:52:00,
2013-10-15 00:57:00,61.5,61.2,30.00,SSE,157,0.0,0.0,99,0.00,,,0.00,WUHU21623XXSP,2013-10-15 05:57:00,
2013-10-15 01:02:00,61.7,61.2,30.00,SSW,202,0.0,0.0,99,0.00,,,0.00,WUHU21623XXSP,2013-10-15 06:02:00,
2013-10-15 01:12:00,61.9,61.6,30.00,South,180,0.0,0.0,99,0.00,,,0.00,WUHU21623XXSP,2013-10-15 06:12:00,
2013-10-15 01:17:00,62.1,61.8,30.00,South,180,0.0,0.0,99,0.00,,,0.00,WUHU21623XXSP,2013-10-15 06:17:00,
2013-10-15 01:22:00,62.2,62.0,30.00,SSW,202,0.0,0.0,99,0.00,,,0.00,WUHU21623XXSP,2013-10-15 06:22:00,
2013-10-15 01:27:00,62.2,62.0,30.00,South,180,0.0,0.0,99,0.00,,,0.00,WUHU21623XXSP,2013-10-15 06:27:00,
2013-10-15 01:32:00,62.4,62.1,30.00,SSW,202,0.0,0.0,99,0.00,,,0.00,WUHU21623XXSP,2013-10-15 06:32:00,
2013-10-15 01:37:00,62.4,62.1,30.00,SW,225,0.0,0.0,99,0.00,,,0.00,WUHU21623XXSP,2013-10-15 06:37:00,
2013-10-15 01:42:00,62.4,62.1,29.99,SSW,202,0.0,0.0,99,0.00,,,0.00,WUHU21623XXSP,2013-10-15 06:42:00,
2013-10-15 01:47:00,62.6,62.3,29.99,South,180,0.0,0.0,99,0.00,,,0.00,WUHU21623XXSP,2013-10-15 06:47:00,
2013-10-15 01:52:00,62.6,62.3,29.99,South,180,0.0,0.0,99,0.00,,,0.00,WUHU21623XXSP,2013-10-15 06:52:00,
2013-10-15 01:57:00,62.8,62.5,29.99,South,180,0.0,0.0,99,0.00,,,0.00,WUHU21623XXSP,2013-10-15 06:57:00,
2013-10-15 02:02:00,63.0,62.7,29.99,WSW,247,0.0,0.0,99,0.00,,,0.00,WUHU21623XXSP,2013-10-15 07:02:00,
2013-10-15 02:07:00,63.0,62.7,29.99,South,180,0.0,0.0,99,0.00,,,0.00,WUHU21623XXSP,2013-10-15 07:07:00,
2013-10-15 02:12:00,63.0,62.7,29.99,SSW,202,0.0,0.0,99,0.00,,,0.00,WUHU21623XXSP,2013-10-15 07:12:00,
2013-10-15 02:17:00,63.1,62.9,29.99,SSE,157,0.0,0.0,99,0.00,,,0.00,WUHU21623XXSP,2013-10-15 07:17:00,
2013-10-15 02:22:00,63.1,62.9,29.99,South,180,0.0,0.0,99,0.00,,,0.00,WUHU21623XXSP,2013-10-15 07:22:00,
2013-10-15 02:27:00,63.3,63.0,29.99,SW,225,0.0,0.0,99,0.00,,,0.00,WUHU21623XXSP,2013-10-15 07:27:00,
2013-10-15 02:32:00,63.3,63.0,29.99,SSW,202,0.0,0.0,99,0.00,,,0.00,WUHU21623XXSP,2013-10-15 07:32:00,
2013-10-15 02:37:00,63.3,63.0,29.99,SSW,202,0.0,0.0,99,0.00,,,0.00,WUHU21623XXSP,2013-10-15 07:37:00,
2013-10-15 02:42:00,63.3,63.0,29.99,South,180,0.0,0.0,99,0.00,,,0.00,WUHU21623XXSP,2013-10-15 07:42:00,
2013-10-15 02:47:00,63.1,62.9,29.98,West,270,0.0,0.0,99,0.00,,,0.00,WUHU21623XXSP,2013-10-15 07:47:00,
2013-10-15 02:52:00,62.8,62.5,29.98,WSW,247,0.0,0.0,99,0.00,,,0.00,WUHU21623XXSP,2013-10-15 07:52:00,
2013-10-15 02:57:00,62.8,62.5,29.98,South,180,0.0,0.0,99,0.00,,,0.00,WUHU21623XXSP,2013-10-15 07:57:00,
2013-10-15 03:02:00,53.4,62.3,29.98,SSW,202,0.0,0.0,99,0.00,,,0.00,WUHU21623XXSP,2013-10-15 08:02:00,
2013-10-15 03:07:00,62.4,62.1,29.97,SSW,202,0.0,0.0,99,0.00,,,0.00,WUHU21623XXSP,2013-10-15 08:07:00,
2013-10-15 03:12:00,62.4,62.1,29.97,SSE,157,0.0,0.4,99,0.00,,,0.00,WUHU21623XXSP,2013-10-15 08:12:00,
2013-10-15 03:17:00,62.6,62.3,29.97,South,180,0.0,0.4,99,0.00,,,0.00,WUHU21623XXSP,2013-10-15 08:17:00,
2013-10-15 03:22:00,62.6,62.3,29.97,SW,225,0.0,0.0,99,0.00,,,0.00,WUHU21623XXSP,2013-10-15 08:22:00,
2013-10-15 03:27:00,62.8,62.5,29.97,SW,225,0.0,0.0,99,0.00,,,0.00,WUHU21623XXSP,2013-10-15 08:27:00,
2013-10-15 03:32:00,62.8,62.5,29.97,SSE,157,0.0,0.0,99,0.00,,,0.00,WUHU21623XXSP,2013-10-15 08:32:00,
2013-10-15 03:37:00,63.0,62.7,29.97,SSW,202,0.0,0.0,99,0.00,,,0.00,WUHU21623XXSP,2013-10-15 08:37:00,
2013-10-15 03:42:00,63.0,62.7,29.97,SW,225,0.0,0.0,99,0.00,,,0.00,WUHU21623XXSP,2013-10-15 08:42:00,
2013-10-15 03:47:00,63.0,62.7,29.97,SW,225,0.0,0.0,99,0.00,,,0.00,WUHU21623XXSP,2013-10-15 08:47:00,
2013-10-15 03:52:00,63.1,62.9,29.97,SSW,202,0.0,0.0,99,0.00,,,0.00,WUHU21623XXSP,2013-10-15 08:52:00,
2013-10-15 03:57:00,63.1,62.9,29.96,WSW,247,0.0,0.0,99,0.00,,,0.00,WUHU21623XXSP,2013-10-15 08:57:00,
2013-10-15 04:02:00,63.1,62.9,29.96,SSW,202,0.0,0.0,99,0.00,,,0.00,WUHU21623XXSP,2013-10-15 09:02:00,
2013-10-15 04:07:00,63.1,62.9,29.96,SW,225,0.0,0.0,99,0.00,,,0.00,WUHU21623XXSP,2013-10-15 09:07:00,
2013-10-15 04:12:00,63.1,62.9,29.96,WSW,247,0.0,0.0,99,0.00,,,0.00,WUHU21623XXSP,2013-10-15 09:12:00,
2013-10-15 04:17:00,63.3,63.0,29.96,WSW,247,0.0,0.0,99,0.00,,,0.00,WUHU21623XXSP,2013-10-15 09:17:00,
2013-10-15 04:22:00,63.3,63.2,29.96,SW,225,0.0,0.0,99,0.00,,,0.00,WUHU21623XXSP,2013-10-15 09:22:00,
2013-10-15 04:27:00,63.5,63.2,29.96,SW,225,0.0,0.0,99,0.00,,,0.00,WUHU21623XXSP,2013-10-15 09:27:00,
2013-10-15 04:32:00,63.5,63.2,29.96,SSW,202,0.0,0.0,99,0.00,,,0.00,WUHU21623XXSP,2013-10-15 09:32:00,
2013-10-15 04:37:00,63.7,63.4,29.96,SSW,202,0.0,0.0,99,0.00,,,0.00,WUHU21623XXSP,2013-10-15 09:37:00,
2013-10-15 04:42:00,63.7,63.4,29.96,SSW,202,0.0,0.0,99,0.00,,,0.00,WUHU21623XXSP,2013-10-15 09:42:00,
2013-10-15 04:47:00,63.7,63.4,29.96,SW,225,0.0,0.0,99,0.00,,,0.00,WUHU21623XXSP,2013-10-15 09:47:00,
2013-10-15 04:52:00,63.7,63.4,29.95,SSW,202,0.0,0.0,99,0.00,,,0.00,WUHU21623XXSP,2013-10-15 09:52:00,
2013-10-15 04:57:00,63.7,63.4,29.96,SSW,202,0.0,0.0,99,0.00,,,0.00,WUHU21623XXSP,2013-10-15 09:57:00,
2013-10-15 05:02:00,63.7,63.4,29.96,SSW,202,0.0,0.0,99,0.00,,,0.00,WUHU21623XXSP,2013-10-15 10:02:00,
2013-10-15 05:07:00,63.5,63.2,29.96,SSW,202,0.0,0.0,99,0.00,,,0.00,WUHU21623XXSP,2013-10-15 10:07:00,
2013-10-15 05:12:00,63.5,63.2,29.96,SSW,202,0.0,0.0,99,0.00,,,0.00,WUHU21623XXSP,2013-10-15 10:12:00,
2013-10-15 05:17:00,63.3,63.0,29.96,SSW,202,0.0,0.0,99,0.00,,,0.00,WUHU21623XXSP,2013-10-15 10:17:00,
2013-10-15 05:22:00,63.1,63.0,29.96,SSW,202,0.0,0.0,99,0.00,,,0.00,WUHU21623XXSP,2013-10-15 10:22:00,
2013-10-15 05:27:00,63.1,62.9,29.96,SSW,202,0.0,0.0,99,0.00,,,0.00,WUHU21623XXSP,2013-10-15 10:27:00,
2013-10-15 05:32:00,63.1,62.9,29.95,SW,225,0.0,0.0,99,0.00,,,0.00,WUHU21623XXSP,2013-10-15 10:32:00,
2013-10-15 05:37:00,63.0,62.7,29.95,South,180,0.0,0.0,99,0.00,,,0.00,WUHU21623XXSP,2013-10-15 10:37:00,
2013-10-15 05:42:00,63.0,62.7,29.96,SW,225,0.0,0.0,99,0.00,,,0.00,WUHU21623XXSP,2013-10-15 10:42:00,
2013-10-15 05:47:00,63.0,62.7,29.95,SSW,202,0.0,0.0,99,0.00,,,0.00,WUHU21623XXSP,2013-10-15 10:47:00,
2013-10-15 05:52:00,63.0,62.7,29.95,SSW,202,0.0,0.0,99,0.00,,,0.00,WUHU21623XXSP,2013-10-15 10:52:00,
2013-10-15 05:57:00,63.0,62.7,29.96,SSW,202,0.0,0.0,99,0.00,,,0.00,WUHU21623XXSP,2013-10-15 10:57:00,
2013-10-15 06:02:00,63.0,62.7,29.97,SW,225,0.0,0.0,99,0.00,,,0.00,WUHU21623XXSP,2013-10-15 11:02:00,
2013-10-15 06:07:00,63.0,62.7,29.97,SW,225,0.0,0.0,99,0.00,,,0.00,WUHU21623XXSP,2013-10-15 11:07:00,
2013-10-15 06:12:00,63.0,62.7,29.96,SSW,202,0.0,0.0,99,0.00,,,0.00,WUHU21623XXSP,2013-10-15 11:12:00,
2013-10-15 06:17:00,63.0,62.7,29.95,SSW,202,0.0,0.0,99,0.00,,,0.00,WUHU21623XXSP,2013-10-15 11:17:00,
2013-10-15 06:22:00,62.8,62.5,29.95,SW,225,0.0,0.0,99,0.00,,,0.00,WUHU21623XXSP,2013-10-15 11:22:00,
2013-10-15 06:27:00,62.8,62.5,29.95,SW,225,0.0,0.0,99,0.00,,,0.00,WUHU21623XXSP,2013-10-15 11:27:00,
2013-10-15 06:32:00,62.8,62.5,29.95,SSW,202,0.0,0.0,99,0.00,,,0.00,WUHU21623XXSP,2013-10-15 11:32:00,
2013-10-15 06:37:00,62.8,62.5,29.95,SSW,202,0.0,0.0,99,0.00,,,0.00,WUHU21623XXSP,2013-10-15 11:37:00,
2013-10-15 06:59:00,62.8,62.5,29.97,SW,225,0.0,0.0,99,0.00,,,0.00,WUHU21623XXSP,2013-10-15 11:59:00,
2013-10-15 07:04:00,62.8,62.5,29.97,SW,225,0.0,0.0,99,0.00,,,0.00,WUHU21623XXSP,2013-10-15 12:04:00,
2013-10-15 07:19:00,62.8,62.5,29.98,SW,225,0.0,0.0,99,0.00,,,0.00,WUHU21623XXSP,2013-10-15 12:19:00,